Location: The Saddle
(36.8333°N, 80.3417°W)
Time: 01:56:46
(UTC-05:00)

A-11 Canister half - Pass Details

Date: 18 December 2023
Orbit: 1526 x 1682 km, 47.3° (Epoch: 01 March)

Event Time Altitude Azimuth Distance (km) Brightness Sun altitude
Rises 18:24:25 0° 280° (W) 4,912 12.8 -15.0°
Reaches altitude 10° 18:27:47 10° 287° (WNW) 3,935 12.0 -15.6°
Maximum altitude 18:37:27 46° 359° (N) 2,140 9.6 -17.5°
Enters shadow 18:43:31 24° 59° (ENE) 2,983 9.9 -18.6°
